Weather History for EGBB - March, 2014

Change the Weather History Date:

Tuesday, March 25, 2014

  Actual Average Record
Temperature  
Mean Temperature 42 °F -  
Max Temperature 46 °F 52 °F 62 °F (2011)
Min Temperature 37 °F 38 °F 30 °F (2004)
Degree Days  
Heating Degree Days 22    
Moisture  
Dew Point 41 °F    
Average Humidity 94    
Maximum Humidity 100    
Minimum Humidity 87    
Precipitation  
Precipitation 0.00 in 0.06 in - ()
Sea Level Pressure  
Sea Level Pressure 29.79 in    
Wind  
Wind Speed 8 mph ()    
Max Wind Speed 16 mph    
Max Gust Speed 23 mph    
Visibility 4.9 miles    
Events Rain    
Averages and records for this station are not official NWS values.
T = Trace of Precipitation, MM = Missing Value Source: Averaged Metar Reports

Daily Weather History Graph

Daily Weather History Graph

Search for Another Location

Airport or City:

Trip Planner

Search our weather history database for the weather conditions in past years. The results will help you decide how hot, cold, wet, or windy it might be!

Date:

Astronomy

Mar. 25, 2014 Rise Set
Actual Time 5:58 AM GMT 6:28 PM GMT
Civil Twilight 5:24 AM GMT 7:03 PM GMT
Nautical Twilight 4:43 AM GMT 7:44 PM GMT
Astronomical Twilight 4:00 AM GMT 8:27 PM GMT
Moon 2:48 AM GMT (3/25) 12:04 PM GMT (3/25)
Length of Visible Light 13h 39m
Length of Day
12h 30m
Waning Crescent, 34% of the Moon is Illuminated
Mar 25
Waning Crescent
Mar 30
New
Apr 7
First Quarter
Apr 15
Full
Apr 22
Last Quarter

Hourly Weather History & Observations

Time (GMT) Temp. Windchill Dew Point Humidity Pressure Visibility Wind Dir Wind Speed Gust Speed Precip Events Conditions
12:20 AM 41.0 °F 32.8 °F 39.2 °F 93% 29.68 in 5.0 mi SSE 16.1 mph - N/A Rain Light Rain
12:50 AM 41.0 °F 33.5 °F 39.2 °F 93% 29.68 in 5.0 mi SE 13.8 mph - N/A Rain Light Rain
1:20 AM 41.0 °F 34.3 °F 39.2 °F 93% 29.68 in 3.1 mi SSE 11.5 mph - N/A Rain Light Rain
1:50 AM 41.0 °F 34.3 °F 39.2 °F 93% 29.68 in 3.1 mi SE 11.5 mph - N/A   Light Drizzle
2:20 AM 41.0 °F 34.3 °F 39.2 °F 93% 29.68 in 6.2 mi SSE 11.5 mph - N/A   Overcast
2:50 AM 41.0 °F 34.3 °F 41.0 °F 100% 29.65 in - SE 11.5 mph - N/A   Drizzle
3:20 AM 41.0 °F 34.7 °F 41.0 °F 100% 29.65 in 1.8 mi SSE 10.4 mph - N/A   Drizzle
3:50 AM 41.0 °F 34.7 °F 41.0 °F 100% 29.65 in 4.3 mi SSE 10.4 mph - N/A Rain Light Rain
4:20 AM 41.0 °F 34.7 °F 41.0 °F 100% 29.65 in 5.0 mi SE 10.4 mph - N/A Rain Light Rain
4:50 AM 41.0 °F 35.8 °F 41.0 °F 100% 29.65 in 3.7 mi SE 8.1 mph - N/A Rain Light Rain
5:20 AM 41.0 °F 35.8 °F 41.0 °F 100% 29.65 in 3.1 mi SE 8.1 mph - N/A Rain Rain
5:50 AM 41.0 °F 36.4 °F 41.0 °F 100% 29.65 in - SE 6.9 mph - N/A Rain Rain
6:20 AM 41.0 °F 36.4 °F 41.0 °F 100% 29.65 in 3.7 mi SE 6.9 mph - N/A Rain Light Rain
6:50 AM 41.0 °F 35.8 °F 41.0 °F 100% 29.65 in 4.3 mi ESE 8.1 mph - N/A Rain Light Rain
7:20 AM 42.8 °F 39.3 °F 41.0 °F 93% 29.68 in 4.3 mi ESE 5.8 mph - N/A Rain Light Rain
7:50 AM 42.8 °F 38.6 °F 41.0 °F 93% 29.68 in 4.3 mi ESE 6.9 mph - N/A Rain Light Rain
8:20 AM 42.8 °F 38.6 °F 41.0 °F 93% 29.68 in 4.3 mi ESE 6.9 mph - N/A Rain Light Rain
8:50 AM 42.8 °F 39.3 °F 41.0 °F 93% 29.68 in 4.3 mi ESE 5.8 mph - N/A Rain Light Rain
9:20 AM 42.8 °F 39.3 °F 41.0 °F 93% 29.71 in 4.3 mi East 5.8 mph - N/A Rain Light Rain
9:50 AM 42.8 °F 39.3 °F 42.8 °F 100% 29.71 in - East 5.8 mph - N/A   Drizzle
10:20 AM 42.8 °F 38.6 °F 41.0 °F 93% 29.71 in 3.7 mi East 6.9 mph - N/A Rain Light Rain
10:50 AM 42.8 °F 38.6 °F 42.8 °F 100% 29.71 in 6.2 mi East 6.9 mph - N/A Rain Light Rain
11:20 AM 44.6 °F 42.2 °F 42.8 °F 93% 29.74 in 3.7 mi East 4.6 mph - N/A Rain Light Rain
11:50 AM 44.6 °F 40.7 °F 42.8 °F 93% 29.74 in 3.7 mi NE 6.9 mph - N/A Rain Light Rain
12:20 PM 44.6 °F 40.7 °F 42.8 °F 93% 29.74 in 4.3 mi NE 6.9 mph - N/A Rain Light Rain
12:50 PM 44.6 °F 40.7 °F 42.8 °F 93% 29.77 in 5.6 mi NE 6.9 mph - N/A Rain Light Rain
1:20 PM 44.6 °F 40.2 °F 42.8 °F 93% 29.77 in 6.2 mi NE 8.1 mph - N/A Rain Light Rain
1:50 PM 46.4 °F 42.4 °F 42.8 °F 87% 29.77 in 6.2 mi Variable 8.1 mph 23.0 mph N/A Rain Light Rain
2:20 PM 46.4 °F 42.9 °F 42.8 °F 87% 29.80 in 6.2 mi ENE 6.9 mph - N/A Rain Light Rain
2:50 PM 44.6 °F 40.2 °F 42.8 °F 93% 29.80 in 6.2 mi ENE 8.1 mph - N/A Rain Light Rain
3:20 PM 44.6 °F 39.7 °F 42.8 °F 93% 29.83 in 6.2 mi ENE 9.2 mph - N/A Rain Light Rain
3:50 PM 44.6 °F 40.2 °F 41.0 °F 87% 29.83 in 6.2 mi East 8.1 mph - N/A Rain Light Rain
4:20 PM 44.6 °F 40.7 °F 41.0 °F 87% 29.86 in 6.2 mi East 6.9 mph - N/A Rain Light Rain
4:50 PM 44.6 °F 43.1 °F 41.0 °F 87% 29.86 in 6.2 mi Variable 3.5 mph - N/A Rain Rain
5:20 PM 44.6 °F 42.2 °F 41.0 °F 87% 29.89 in - North 4.6 mph - N/A   Clear
5:50 PM 44.6 °F 42.2 °F 41.0 °F 87% 29.89 in - North 4.6 mph - N/A   Clear
6:20 PM 42.8 °F 38.6 °F 39.2 °F 87% 29.92 in - NNW 6.9 mph - N/A   Clear
6:50 PM 42.8 °F 38.6 °F 41.0 °F 93% 29.92 in 6.2 mi North 6.9 mph - N/A   Scattered Clouds
7:20 PM 42.8 °F 39.3 °F 41.0 °F 93% 29.95 in 6.2 mi NNW 5.8 mph - N/A   Mostly Cloudy
7:50 PM 42.8 °F 38.0 °F 41.0 °F 93% 29.98 in - NNW 8.1 mph - N/A   Clear
8:20 PM 41.0 °F 35.2 °F 39.2 °F 93% 29.98 in - NNW 9.2 mph - N/A   Clear
8:50 PM 41.0 °F 34.7 °F 39.2 °F 93% 29.98 in - NNW 10.4 mph - N/A   Clear
9:20 PM 41.0 °F 35.8 °F 39.2 °F 93% 30.01 in - North 8.1 mph - N/A   Clear
9:50 PM 39.2 °F 34.2 °F 37.4 °F 93% 30.01 in 5.6 mi North 6.9 mph - N/A   Unknown
10:20 PM 39.2 °F 35.0 °F 37.4 °F 93% 30.01 in 5.6 mi North 5.8 mph - N/A   Unknown
10:50 PM 39.2 °F 35.0 °F 37.4 °F 93% 30.04 in 5.6 mi North 5.8 mph - N/A   Unknown
11:20 PM 39.2 °F 35.9 °F 37.4 °F 93% 30.04 in 4.3 mi North 4.6 mph - N/A   Unknown
11:50 PM 37.4 °F 34.9 °F 35.6 °F 93% 30.04 in 4.3 mi North 3.5 mph - N/A   Unknown